Time,TemperatureF,DewpointF,PressureIn,WindDirection,WindDirectionDegrees,WindSpeedMPH,WindSpeedGustMPH,Humidity,HourlyPrecipIn,Conditions,Clouds,dailyrainin,SolarRadiationWatts/m^2,SoftwareType,DateUTC
2013-08-02 00:02:00,77.0,53.0,30.07,NW,322,5.0,7.0,43,-99.99,,,-99.99,0.000000,,2013-08-02 06:02:00,
2013-08-02 00:12:00,77.0,53.0,30.07,NNW,338,4.0,6.0,42,-99.99,,,-99.99,0.000000,,2013-08-02 06:12:00,
2013-08-02 00:22:00,74.0,56.0,30.08,WNW,289,5.0,7.0,52,-99.99,,,-99.99,0.000000,,2013-08-02 06:22:00,
2013-08-02 00:33:00,74.0,56.0,30.08,WNW,289,5.0,7.0,52,-99.99,,,-99.99,0.000000,,2013-08-02 06:33:00,
2013-08-02 00:43:00,73.0,56.0,30.08,West,275,5.0,8.0,56,-99.99,,,-99.99,0.000000,,2013-08-02 06:43:00,
2013-08-02 01:02:00,74.0,54.0,30.08,West,278,7.0,11.0,49,-99.99,,,-99.99,0.000000,,2013-08-02 07:02:00,
2013-08-02 01:12:00,76.0,54.0,30.08,WNW,282,6.0,8.0,46,-99.99,,,-99.99,0.000000,,2013-08-02 07:12:00,
2013-08-02 01:22:00,75.0,54.0,30.07,WNW,283,7.0,8.0,46,-99.99,,,-99.99,0.000000,,2013-08-02 07:22:00,
2013-08-02 01:33:00,75.0,54.0,30.07,WNW,283,7.0,8.0,46,-99.99,,,-99.99,0.000000,,2013-08-02 07:33:00,
2013-08-02 01:44:00,75.0,54.0,30.07,NW,304,6.0,8.0,49,-99.99,,,-99.99,0.000000,,2013-08-02 07:44:00,
2013-08-02 01:53:00,74.0,54.0,30.06,WNW,292,6.0,8.0,50,-99.99,,,-99.99,0.000000,,2013-08-02 07:53:00,
2013-08-02 02:02:00,74.0,54.0,30.06,WNW,292,6.0,8.0,50,-99.99,,,-99.99,0.000000,,2013-08-02 08:02:00,
2013-08-02 02:12:00,74.0,54.0,30.06,WNW,282,6.0,8.0,48,-99.99,,,-99.99,0.000000,,2013-08-02 08:12:00,
2013-08-02 02:22:00,74.0,55.0,30.06,WNW,289,6.0,9.0,50,-99.99,,,-99.99,0.000000,,2013-08-02 08:22:00,
2013-08-02 02:33:00,74.0,55.0,30.06,WNW,289,6.0,9.0,50,-99.99,,,-99.99,0.000000,,2013-08-02 08:33:00,
2013-08-02 02:43:00,73.0,55.0,30.06,WNW,291,6.0,7.0,53,-99.99,,,-99.99,0.000000,,2013-08-02 08:43:00,
2013-08-02 02:54:00,73.0,55.0,30.06,WNW,291,6.0,7.0,53,-99.99,,,-99.99,0.000000,,2013-08-02 08:54:00,
2013-08-02 03:02:00,73.0,55.0,30.06,WNW,291,6.0,7.0,53,-99.99,,,-99.99,0.000000,,2013-08-02 09:02:00,
2013-08-02 03:12:00,72.0,55.0,30.05,WNW,300,6.0,7.0,56,-99.99,,,-99.99,0.000000,,2013-08-02 09:12:00,
2013-08-02 03:23:00,71.0,56.0,30.05,WNW,293,7.0,9.0,58,-99.99,,,-99.99,0.000000,,2013-08-02 09:23:00,
2013-08-02 03:33:00,71.0,56.0,30.05,WNW,293,7.0,9.0,58,-99.99,,,-99.99,0.000000,,2013-08-02 09:33:00,
2013-08-02 03:43:00,71.0,55.0,30.05,WNW,288,8.0,9.0,55,-99.99,,,-99.99,0.000000,,2013-08-02 09:43:00,
2013-08-02 03:53:00,72.0,54.0,30.05,WNW,288,4.0,6.0,53,-99.99,,,-99.99,0.000000,,2013-08-02 09:53:00,
2013-08-02 04:02:00,72.0,54.0,30.05,WNW,288,4.0,6.0,53,-99.99,,,-99.99,0.000000,,2013-08-02 10:02:00,
2013-08-02 04:12:00,72.0,54.0,30.05,WNW,288,4.0,6.0,53,-99.99,,,-99.99,0.000000,,2013-08-02 10:12:00,
2013-08-02 04:23:00,70.0,56.0,30.05,WNW,296,4.0,7.0,62,-99.99,,,-99.99,0.000000,,2013-08-02 10:23:00,
2013-08-02 04:33:00,70.0,56.0,30.05,WNW,296,4.0,7.0,62,-99.99,,,-99.99,0.000000,,2013-08-02 10:33:00,
2013-08-02 04:43:00,69.0,56.0,30.05,WNW,290,6.0,8.0,63,-99.99,,,-99.99,0.000000,,2013-08-02 10:43:00,
2013-08-02 05:02:00,69.0,57.0,30.05,WNW,294,6.0,7.0,64,-99.99,,,-99.99,0.000000,,2013-08-02 11:02:00,
2013-08-02 05:12:00,69.0,56.0,30.05,WNW,300,6.0,8.0,63,-99.99,,,-99.99,0.000000,,2013-08-02 11:12:00,
2013-08-02 05:23:00,69.0,57.0,30.05,NW,304,4.0,6.0,65,-99.99,,,-99.99,0.000000,,2013-08-02 11:23:00,
2013-08-02 05:32:00,69.0,57.0,30.05,NW,304,4.0,6.0,65,-99.99,,,-99.99,0.000000,,2013-08-02 11:32:00,
2013-08-02 05:43:00,69.0,57.0,30.05,NW,304,4.0,6.0,65,-99.99,,,-99.99,0.000000,,2013-08-02 11:43:00,
2013-08-02 06:02:00,68.0,58.0,30.05,SSE,152,2.0,11.0,69,-99.99,,,-99.99,0.000000,,2013-08-02 12:02:00,
2013-08-02 06:12:00,68.0,58.0,30.05,SSE,152,2.0,11.0,69,-99.99,,,-99.99,0.000000,,2013-08-02 12:12:00,
2013-08-02 06:22:00,70.0,56.0,30.05,SSW,212,2.0,7.0,60,-99.99,,,-99.99,0.000000,,2013-08-02 12:22:00,
2013-08-02 06:32:00,70.0,56.0,30.05,SSW,212,2.0,7.0,60,-99.99,,,-99.99,0.000000,,2013-08-02 12:32:00,
2013-08-02 06:43:00,71.0,55.0,30.05,North,8,5.0,8.0,57,-99.99,,,-99.99,0.700000,,2013-08-02 12:43:00,
2013-08-02 07:02:00,69.0,57.0,30.06,WNW,292,6.0,9.0,65,-99.99,,,-99.99,5.580000,,2013-08-02 13:02:00,
2013-08-02 07:12:00,68.0,56.0,30.06,WNW,288,5.0,8.0,65,-99.99,,,-99.99,18.830000,,2013-08-02 13:12:00,
2013-08-02 07:22:00,70.0,57.0,30.06,WNW,292,7.0,9.0,63,-99.99,,,-99.99,53.689999,,2013-08-02 13:22:00,
2013-08-02 07:33:00,70.0,57.0,30.06,WNW,292,7.0,9.0,63,-99.99,,,-99.99,53.689999,,2013-08-02 13:33:00,
2013-08-02 07:43:00,72.0,57.0,30.07,WNW,290,6.0,8.0,59,-99.99,,,-99.99,101.110001,,2013-08-02 13:43:00,
2013-08-02 07:52:00,75.0,58.0,30.07,WNW,293,5.0,6.0,55,-99.99,,,-99.99,146.440002,,2013-08-02 13:52:00,
2013-08-02 08:02:00,75.0,58.0,30.07,WNW,293,5.0,6.0,55,-99.99,,,-99.99,146.440002,,2013-08-02 14:02:00,
2013-08-02 08:12:00,77.0,59.0,30.08,WNW,301,3.0,5.0,54,-99.99,,,-99.99,193.860001,,2013-08-02 14:12:00,
2013-08-02 08:22:00,77.0,59.0,30.08,WNW,301,3.0,5.0,54,-99.99,,,-99.99,193.860001,,2013-08-02 14:22:00,
2013-08-02 08:32:00,77.0,59.0,30.08,WNW,301,3.0,5.0,54,-99.99,,,-99.99,193.860001,,2013-08-02 14:32:00,
2013-08-02 08:43:00,79.0,55.0,30.09,NE,40,5.0,8.0,44,-99.99,,,-99.99,276.140015,,2013-08-02 14:43:00,
2013-08-02 09:03:00,77.0,55.0,30.10,NNE,32,7.0,9.0,46,-99.99,,,-99.99,337.510010,,2013-08-02 15:03:00,
2013-08-02 09:12:00,77.0,57.0,30.10,North,8,7.0,10.0,49,-99.99,,,-99.99,370.279999,,2013-08-02 15:12:00,
2013-08-02 09:22:00,78.0,56.0,30.10,North,11,6.0,9.0,47,-99.99,,,-99.99,434.440002,,2013-08-02 15:22:00,
2013-08-02 09:32:00,78.0,56.0,30.10,North,11,6.0,9.0,47,-99.99,,,-99.99,434.440002,,2013-08-02 15:32:00,
2013-08-02 09:43:00,79.0,56.0,30.10,NNE,20,5.0,8.0,45,-99.99,,,-99.99,473.489990,,2013-08-02 15:43:00,
2013-08-02 09:52:00,80.0,55.0,30.10,NE,39,5.0,9.0,42,-99.99,,,-99.99,520.210022,,2013-08-02 15:52:00,
2013-08-02 10:02:00,80.0,55.0,30.10,NE,39,5.0,9.0,42,-99.99,,,-99.99,520.210022,,2013-08-02 16:02:00,
2013-08-02 10:12:00,80.0,55.0,30.10,NE,39,5.0,9.0,42,-99.99,,,-99.99,520.210022,,2013-08-02 16:12:00,
2013-08-02 10:22:00,82.0,54.0,30.11,NNE,27,3.0,6.0,37,-99.99,,,-99.99,605.289978,,2013-08-02 16:22:00,
2013-08-02 10:32:00,82.0,54.0,30.11,NNE,27,3.0,6.0,37,-99.99,,,-99.99,605.289978,,2013-08-02 16:32:00,
2013-08-02 10:43:00,83.0,54.0,30.11,NE,56,3.0,7.0,36,-99.99,,,-99.99,640.150024,,2013-08-02 16:43:00,
2013-08-02 10:53:00,83.0,54.0,30.11,NE,56,3.0,7.0,36,-99.99,,,-99.99,640.150024,,2013-08-02 16:53:00,
2013-08-02 11:02:00,83.0,54.0,30.11,NE,56,3.0,7.0,36,-99.99,,,-99.99,640.150024,,2013-08-02 17:02:00,
2013-08-02 11:12:00,85.0,55.0,30.11,East,98,3.0,7.0,36,-99.99,,,-99.99,693.150024,,2013-08-02 17:12:00,
2013-08-02 11:35:00,86.0,57.0,30.11,East,100,2.0,7.0,36,-99.99,,,-99.99,739.169983,,2013-08-02 17:35:00,
2013-08-02 11:43:00,87.0,56.0,30.10,NE,49,2.0,5.0,35,-99.99,,,-99.99,767.070007,,2013-08-02 17:43:00,
2013-08-02 11:52:00,88.0,57.0,30.10,SW,233,3.0,6.0,34,-99.99,,,-99.99,793.570007,,2013-08-02 17:52:00,
2013-08-02 12:02:00,88.0,57.0,30.10,SW,233,3.0,6.0,34,-99.99,,,-99.99,793.570007,,2013-08-02 18:02:00,
2013-08-02 12:12:00,89.0,56.0,30.09,ESE,110,4.0,8.0,33,-99.99,,,-99.99,813.090027,,2013-08-02 18:12:00,
2013-08-02 12:22:00,89.0,55.0,30.09,ENE,64,4.0,9.0,31,-99.99,,,-99.99,842.380005,,2013-08-02 18:22:00,
2013-08-02 12:32:00,89.0,55.0,30.09,ENE,64,4.0,9.0,31,-99.99,,,-99.99,842.380005,,2013-08-02 18:32:00,
2013-08-02 12:43:00,90.0,55.0,30.09,SW,214,3.0,9.0,30,-99.99,,,-99.99,891.190002,,2013-08-02 18:43:00,
2013-08-02 12:52:00,91.0,55.0,30.08,SE,142,7.0,13.0,29,-99.99,,,-99.99,940.010010,,2013-08-02 18:52:00,
2013-08-02 13:02:00,91.0,55.0,30.08,SE,142,7.0,13.0,29,-99.99,,,-99.99,940.010010,,2013-08-02 19:02:00,
2013-08-02 13:12:00,91.0,55.0,30.08,SE,142,7.0,13.0,29,-99.99,,,-99.99,940.010010,,2013-08-02 19:12:00,
2013-08-02 13:22:00,90.0,54.0,30.07,South,169,5.0,11.0,29,-99.99,,,-99.99,671.530029,,2013-08-02 19:22:00,
2013-08-02 13:32:00,90.0,54.0,30.07,South,169,5.0,11.0,29,-99.99,,,-99.99,671.530029,,2013-08-02 19:32:00,
2013-08-02 13:43:00,91.0,54.0,30.07,SW,226,2.0,7.0,28,-99.99,,,-99.99,377.260010,,2013-08-02 19:43:00,
2013-08-02 13:52:00,91.0,54.0,30.07,SW,226,2.0,7.0,28,-99.99,,,-99.99,377.260010,,2013-08-02 19:52:00,
2013-08-02 14:02:00,91.0,54.0,30.07,SW,226,2.0,7.0,28,-99.99,,,-99.99,377.260010,,2013-08-02 20:02:00,
2013-08-02 14:12:00,89.0,53.0,30.06,SE,144,5.0,7.0,29,-99.99,,,-99.99,241.279999,,2013-08-02 20:12:00,
2013-08-02 14:22:00,90.0,53.0,30.05,South,175,4.0,7.0,28,-99.99,,,-99.99,426.769989,,2013-08-02 20:22:00,
2013-08-02 14:32:00,90.0,53.0,30.05,South,175,4.0,7.0,28,-99.99,,,-99.99,426.769989,,2013-08-02 20:32:00,
2013-08-02 14:43:00,90.0,53.0,30.05,South,175,4.0,7.0,28,-99.99,,,-99.99,426.769989,,2013-08-02 20:43:00,
2013-08-02 14:52:00,92.0,52.0,30.03,SSE,150,4.0,11.0,25,-99.99,,,-99.99,592.729980,,2013-08-02 20:52:00,
2013-08-02 15:02:00,92.0,52.0,30.03,SSE,150,4.0,11.0,25,-99.99,,,-99.99,592.729980,,2013-08-02 21:02:00,
2013-08-02 15:12:00,93.0,51.0,30.03,SW,218,3.0,9.0,24,-99.99,,,-99.99,866.090027,,2013-08-02 21:12:00,
2013-08-02 15:22:00,94.0,51.0,30.02,North,356,3.0,7.0,23,-99.99,,,-99.99,848.650024,,2013-08-02 21:22:00,
2013-08-02 15:32:00,94.0,51.0,30.02,North,356,3.0,7.0,23,-99.99,,,-99.99,848.650024,,2013-08-02 21:32:00,
2013-08-02 15:43:00,95.0,50.0,30.02,SW,231,3.0,7.0,22,-99.99,,,-99.99,806.809998,,2013-08-02 21:43:00,
2013-08-02 16:02:00,94.0,49.0,30.01,NW,304,3.0,9.0,21,-99.99,,,-99.99,700.119995,,2013-08-02 22:02:00,
2013-08-02 16:12:00,94.0,48.0,30.00,East,96,4.0,13.0,20,-99.99,,,-99.99,753.820007,,2013-08-02 22:12:00,
2013-08-02 16:22:00,94.0,49.0,29.99,SE,142,7.0,13.0,21,-99.99,,,-99.99,718.950012,,2013-08-02 22:22:00,
2013-08-02 16:32:00,94.0,49.0,29.99,SE,142,7.0,13.0,21,-99.99,,,-99.99,718.950012,,2013-08-02 22:32:00,
2013-08-02 16:43:00,95.0,48.0,29.99,SE,137,7.0,14.0,20,-99.99,,,-99.99,672.229980,,2013-08-02 22:43:00,
2013-08-02 17:02:00,95.0,49.0,29.99,SSE,164,5.0,10.0,21,-99.99,,,-99.99,625.510010,,2013-08-02 23:02:00,
2013-08-02 17:12:00,94.0,49.0,29.99,SSW,196,4.0,7.0,21,-99.99,,,-99.99,253.130005,,2013-08-02 23:12:00,
2013-08-02 17:22:00,92.0,51.0,29.99,SSW,208,3.0,6.0,25,-99.99,,,-99.99,111.570000,,2013-08-02 23:22:00,
2013-08-02 17:32:00,92.0,51.0,29.99,SSW,208,3.0,6.0,25,-99.99,,,-99.99,111.570000,,2013-08-02 23:32:00,
2013-08-02 17:43:00,91.0,52.0,29.99,SW,225,4.0,7.0,26,-99.99,,,-99.99,73.919998,,2013-08-02 23:43:00,
2013-08-02 17:53:00,90.0,54.0,29.99,WSW,245,4.0,8.0,29,-99.99,,,-99.99,87.169998,,2013-08-02 23:53:00,
2013-08-02 18:02:00,90.0,54.0,29.99,WSW,245,4.0,8.0,29,-99.99,,,-99.99,87.169998,,2013-08-03 00:02:00,
2013-08-02 18:12:00,89.0,53.0,29.98,NW,314,9.0,14.0,29,-99.99,,,-99.99,186.190002,,2013-08-03 00:12:00,
2013-08-02 18:22:00,93.0,51.0,29.98,SW,224,3.0,6.0,23,-99.99,,,-99.99,373.070007,,2013-08-03 00:22:00,
2013-08-02 18:33:00,93.0,51.0,29.98,SW,224,3.0,6.0,23,-99.99,,,-99.99,373.070007,,2013-08-03 00:33:00,
2013-08-02 18:43:00,95.0,51.0,29.98,SSW,204,2.0,4.0,22,-99.99,,,-99.99,334.720001,,2013-08-03 00:43:00,
2013-08-02 18:52:00,95.0,51.0,29.98,SSE,167,4.0,8.0,22,-99.99,,,-99.99,276.839996,,2013-08-03 00:52:00,
2013-08-02 19:02:00,95.0,51.0,29.98,SSE,167,4.0,8.0,22,-99.99,,,-99.99,276.839996,,2013-08-03 01:02:00,
2013-08-02 19:12:00,93.0,52.0,29.98,WSW,239,9.0,16.0,25,-99.99,,,-99.99,188.279999,,2013-08-03 01:12:00,
2013-08-02 19:22:00,93.0,52.0,29.98,WSW,239,9.0,16.0,25,-99.99,,,-99.99,188.279999,,2013-08-03 01:22:00,
2013-08-02 19:32:00,93.0,52.0,29.98,WSW,239,9.0,16.0,25,-99.99,,,-99.99,188.279999,,2013-08-03 01:32:00,
2013-08-02 19:42:00,89.0,52.0,29.99,West,264,7.0,12.0,28,-99.99,,,-99.99,29.990000,,2013-08-03 01:42:00,
2013-08-02 19:53:00,88.0,53.0,30.00,West,271,6.0,10.0,30,-99.99,,,-99.99,22.309999,,2013-08-03 01:53:00,
2013-08-02 20:02:00,88.0,53.0,30.00,West,271,6.0,10.0,30,-99.99,,,-99.99,22.309999,,2013-08-03 02:02:00,
2013-08-02 20:12:00,86.0,54.0,29.99,West,280,5.0,8.0,33,-99.99,,,-99.99,11.850000,,2013-08-03 02:12:00,
2013-08-02 20:22:00,85.0,54.0,30.00,NW,304,5.0,10.0,34,-99.99,,,-99.99,5.580000,,2013-08-03 02:22:00,
2013-08-02 20:32:00,85.0,54.0,30.00,NW,304,5.0,10.0,34,-99.99,,,-99.99,5.580000,,2013-08-03 02:32:00,
2013-08-02 20:43:00,85.0,54.0,30.00,NW,304,5.0,10.0,34,-99.99,,,-99.99,5.580000,,2013-08-03 02:43:00,
2013-08-02 20:52:00,84.0,52.0,30.00,NW,318,6.0,10.0,33,-99.99,,,-99.99,0.000000,,2013-08-03 02:52:00,
2013-08-02 21:02:00,84.0,52.0,30.00,NW,318,6.0,10.0,33,-99.99,,,-99.99,0.000000,,2013-08-03 03:02:00,
2013-08-02 21:12:00,84.0,52.0,30.00,NW,318,6.0,10.0,33,-99.99,,,-99.99,0.000000,,2013-08-03 03:12:00,
2013-08-02 21:32:00,83.0,52.0,30.01,NW,319,5.0,8.0,34,-99.99,,,-99.99,0.000000,,2013-08-03 03:32:00,
2013-08-02 21:43:00,82.0,55.0,30.02,NW,308,4.0,6.0,39,-99.99,,,-99.99,0.000000,,2013-08-03 03:43:00,
2013-08-02 21:53:00,82.0,55.0,30.02,NW,308,4.0,6.0,39,-99.99,,,-99.99,0.000000,,2013-08-03 03:53:00,
2013-08-02 22:02:00,81.0,56.0,30.02,NW,318,2.0,6.0,42,-99.99,,,-99.99,0.000000,,2013-08-03 04:02:00,
2013-08-02 22:12:00,85.0,52.0,30.02,WNW,283,5.0,13.0,32,-99.99,,,-99.99,0.000000,,2013-08-03 04:12:00,
2013-08-02 22:22:00,85.0,52.0,30.02,WNW,283,5.0,13.0,32,-99.99,,,-99.99,0.000000,,2013-08-03 04:22:00,
2013-08-02 22:32:00,85.0,52.0,30.02,WNW,283,5.0,13.0,32,-99.99,,,-99.99,0.000000,,2013-08-03 04:32:00,
2013-08-02 22:43:00,87.0,51.0,30.03,West,275,11.0,24.0,28,-99.99,,,-99.99,0.000000,,2013-08-03 04:43:00,
2013-08-02 23:02:00,86.0,52.0,30.04,WNW,302,13.0,21.0,30,-99.99,,,-99.99,0.000000,,2013-08-03 05:02:00,
2013-08-02 23:12:00,86.0,52.0,30.04,WNW,302,13.0,21.0,30,-99.99,,,-99.99,0.000000,,2013-08-03 05:12:00,
2013-08-02 23:22:00,84.0,52.0,30.05,WNW,297,17.0,27.0,33,-99.99,,,-99.99,0.000000,,2013-08-03 05:22:00,
2013-08-02 23:32:00,84.0,52.0,30.05,WNW,297,17.0,27.0,33,-99.99,,,-99.99,0.000000,,2013-08-03 05:32:00,
2013-08-02 23:42:00,84.0,52.0,30.05,WNW,291,15.0,23.0,34,-99.99,,,-99.99,0.000000,,2013-08-03 05:42:00,
2013-08-02 23:52:00,83.0,53.0,30.05,WNW,302,13.0,18.0,35,-99.99,,,-99.99,0.000000,,2013-08-03 05:52:00,